sat.trackr.live / text

‹ back to catalog

EUTELSAT 7B

NORAD 39163 · 2013-022A

PAYLOAD ACTIVE UNKNOWN

§ Identity

Operator
Country
EUTE
Launch date
2013-05-14
Launch site
TYMSC
Launch vehicle
Mass (kg)
RCS (m²)
64.93

Purposes: comms

External: N2YO · Heavens-Above · Gunter

§ Orbital elements

Epoch: 2026-05-25T03:46:32.079072Z

Period
1,436.10 min
Inclination
0.0742°
Eccentricity
0.0005406
Mean motion
1.00271445 rev/d
Perigee alt
35,763.9 km
Apogee alt
35,809.5 km
Semi-major
42,164.8 km
B*
0.0000e+0
RAAN
18.3473°
Arg perigee
12.8707°
Mean anomaly
275.1501°
Rev number
4,771

§ Raw data

EUTELSAT 7B1 39163U 13022A   26145.15731573  .00000046  00000+0  00000+0 0  99982 39163   0.0742  18.3473 0005406  12.8707 275.1501  1.00271445 47717

JSON: /api/v1/satellites/39163 · /tle

For live sub-satellite position, see the globe view (requires WebGL).

§ Visibility from observer

Set your observer location to see the next 7 days of passes ≥ 10°. The values pass through the URL so the page stays shareable.

No JS? Fill the form by hand. The geolocation button needs JavaScript.